Time,TemperatureF,DewpointF,PressureIn,WindDirection,WindDirectionDegrees,WindSpeedMPH,WindSpeedGustMPH,Humidity,HourlyPrecipIn,Conditions,Clouds,dailyrainin,SoftwareType,DateUTC
2013-12-10 00:01:00,16.9,3.8,30.31,SW,225,0.0,7.6,56,-99.99,,,0.00,wxRedirect v1.1,2013-12-10 06:01:00,
2013-12-10 00:06:00,16.9,3.8,30.32,SSW,202,1.1,7.6,56,-99.99,,,0.00,wxRedirect v1.1,2013-12-10 06:06:00,
2013-12-10 00:11:00,16.9,3.8,30.31,WSW,247,1.1,3.6,56,-99.99,,,0.00,wxRedirect v1.1,2013-12-10 06:11:00,
2013-12-10 00:16:00,16.9,3.8,30.31,WSW,247,4.3,4.3,56,-99.99,,,0.00,wxRedirect v1.1,2013-12-10 06:16:00,
2013-12-10 00:21:00,16.9,3.8,30.32,WSW,247,0.4,4.5,56,-99.99,,,0.00,wxRedirect v1.1,2013-12-10 06:21:00,
2013-12-10 00:27:00,16.7,3.6,30.32,WSW,247,2.9,5.1,56,-99.99,,,0.00,wxRedirect v1.1,2013-12-10 06:27:00,
2013-12-10 00:32:00,16.7,3.6,30.32,WSW,247,3.4,5.1,56,-99.99,,,0.00,wxRedirect v1.1,2013-12-10 06:32:00,
2013-12-10 00:37:00,16.5,3.5,30.32,WSW,247,0.0,5.8,56,-99.99,,,0.00,wxRedirect v1.1,2013-12-10 06:37:00,
2013-12-10 00:43:00,16.5,3.5,30.32,West,270,1.8,5.8,56,-99.99,,,0.00,wxRedirect v1.1,2013-12-10 06:43:00,
2013-12-10 00:48:00,16.5,3.5,30.32,WSW,247,4.9,5.4,56,-99.99,,,0.00,wxRedirect v1.1,2013-12-10 06:48:00,
2013-12-10 00:53:00,16.5,3.5,30.32,West,270,0.0,5.1,56,-99.99,,,0.00,wxRedirect v1.1,2013-12-10 06:53:00,
2013-12-10 00:59:00,16.3,3.3,30.31,SW,225,2.5,6.7,56,-99.99,,,0.00,wxRedirect v1.1,2013-12-10 06:59:00,
2013-12-10 01:04:00,16.3,3.3,30.32,WSW,247,0.0,6.7,56,-99.99,,,0.00,wxRedirect v1.1,2013-12-10 07:04:00,
2013-12-10 01:09:00,16.3,3.3,30.31,SW,225,0.0,5.8,56,-99.99,,,0.00,wxRedirect v1.1,2013-12-10 07:09:00,
2013-12-10 01:15:00,16.3,3.3,30.31,WSW,247,0.0,5.8,56,-99.99,,,0.00,wxRedirect v1.1,2013-12-10 07:15:00,
2013-12-10 01:20:00,16.3,3.3,30.30,SW,225,0.0,4.3,56,-99.99,,,0.00,wxRedirect v1.1,2013-12-10 07:20:00,
2013-12-10 01:25:00,16.3,3.3,30.30,SW,225,0.0,4.3,56,-99.99,,,0.00,wxRedirect v1.1,2013-12-10 07:25:00,
2013-12-10 01:30:00,16.2,3.1,30.30,SW,225,0.0,4.0,56,-99.99,,,0.00,wxRedirect v1.1,2013-12-10 07:30:00,
2013-12-10 01:36:00,16.2,3.1,30.31,SW,225,0.0,2.9,56,-99.99,,,0.00,wxRedirect v1.1,2013-12-10 07:36:00,
2013-12-10 01:41:00,16.2,3.1,30.30,SW,225,0.9,2.5,56,-99.99,,,0.00,wxRedirect v1.1,2013-12-10 07:41:00,
2013-12-10 01:46:00,16.2,3.1,30.31,WSW,247,0.4,4.0,56,-99.99,,,0.00,wxRedirect v1.1,2013-12-10 07:46:00,
2013-12-10 01:51:00,16.2,3.1,30.31,West,270,0.0,4.5,56,-99.99,,,0.00,wxRedirect v1.1,2013-12-10 07:51:00,
2013-12-10 01:57:00,16.2,3.1,30.30,WSW,247,0.0,4.5,56,-99.99,,,0.00,wxRedirect v1.1,2013-12-10 07:57:00,
2013-12-10 02:02:00,16.2,3.5,30.30,SW,225,2.9,2.9,57,-99.99,,,0.00,wxRedirect v1.1,2013-12-10 08:02:00,
2013-12-10 02:07:00,16.2,3.1,30.30,South,180,0.0,2.9,56,-99.99,,,0.00,wxRedirect v1.1,2013-12-10 08:07:00,
2013-12-10 02:12:00,16.2,3.1,30.30,SSW,202,0.0,2.9,56,-99.99,,,0.00,wxRedirect v1.1,2013-12-10 08:12:00,
2013-12-10 02:18:00,16.2,3.1,30.30,SSW,202,0.0,2.0,56,-99.99,,,0.00,wxRedirect v1.1,2013-12-10 08:18:00,
2013-12-10 02:23:00,16.2,3.1,30.30,SSW,202,0.0,2.0,56,-99.99,,,0.00,wxRedirect v1.1,2013-12-10 08:23:00,
2013-12-10 02:28:00,16.2,3.1,30.30,SSW,202,0.0,1.6,56,-99.99,,,0.00,wxRedirect v1.1,2013-12-10 08:28:00,
2013-12-10 02:34:00,16.2,3.1,30.30,SSW,202,2.9,3.1,56,-99.99,,,0.00,wxRedirect v1.1,2013-12-10 08:34:00,
2013-12-10 02:39:00,16.2,3.1,30.30,SSW,202,0.0,3.1,56,-99.99,,,0.00,wxRedirect v1.1,2013-12-10 08:39:00,
2013-12-10 02:44:00,16.0,2.9,30.29,SW,225,0.9,4.3,56,-99.99,,,0.00,wxRedirect v1.1,2013-12-10 08:44:00,
2013-12-10 02:50:00,15.8,2.8,30.29,SSW,202,0.0,4.0,56,-99.99,,,0.00,wxRedirect v1.1,2013-12-10 08:50:00,
2013-12-10 02:55:00,15.8,2.8,30.29,South,180,1.1,3.8,56,-99.99,,,0.00,wxRedirect v1.1,2013-12-10 08:55:00,
2013-12-10 03:00:00,15.6,2.6,30.29,South,180,0.0,4.7,56,-99.99,,,0.00,wxRedirect v1.1,2013-12-10 09:00:00,
2013-12-10 03:06:00,15.4,2.8,30.29,SSW,202,0.0,4.7,57,-99.99,,,0.00,wxRedirect v1.1,2013-12-10 09:06:00,
2013-12-10 03:09:00,15.4,2.4,30.28,South,180,3.1,4.3,56,-99.99,,,0.00,wxRedirect v1.1,2013-12-10 09:09:00,
2013-12-10 03:15:00,15.1,2.1,30.28,South,180,0.0,3.4,56,-99.99,,,0.00,wxRedirect v1.1,2013-12-10 09:15:00,
2013-12-10 03:20:00,15.1,2.1,30.28,South,180,0.0,3.4,56,-99.99,,,0.00,wxRedirect v1.1,2013-12-10 09:20:00,
2013-12-10 03:25:00,14.9,2.3,30.28,South,180,0.0,0.0,57,-99.99,,,0.00,wxRedirect v1.1,2013-12-10 09:25:00,
2013-12-10 03:30:00,15.1,2.1,30.27,South,180,1.1,2.7,56,-99.99,,,0.00,wxRedirect v1.1,2013-12-10 09:30:00,
2013-12-10 03:36:00,14.7,2.1,30.27,South,180,0.0,2.7,57,-99.99,,,0.00,wxRedirect v1.1,2013-12-10 09:36:00,
2013-12-10 03:41:00,14.5,2.0,30.27,SSE,157,0.0,2.0,57,-99.99,,,0.00,wxRedirect v1.1,2013-12-10 09:41:00,
2013-12-10 03:46:00,14.5,2.0,30.27,SSW,202,0.0,2.2,57,-99.99,,,0.00,wxRedirect v1.1,2013-12-10 09:46:00,
2013-12-10 03:52:00,14.7,2.1,30.27,SSW,202,0.0,2.2,57,-99.99,,,0.00,wxRedirect v1.1,2013-12-10 09:52:00,
2013-12-10 03:57:00,14.7,2.1,30.28,SSW,202,1.8,1.8,57,-99.99,,,0.00,wxRedirect v1.1,2013-12-10 09:57:00,
2013-12-10 04:02:00,14.7,2.1,30.29,SSW,202,0.2,2.0,57,-99.99,,,0.00,wxRedirect v1.1,2013-12-10 10:02:00,
2013-12-10 04:08:00,14.5,2.0,30.29,SSW,202,0.0,4.7,57,-99.99,,,0.00,wxRedirect v1.1,2013-12-10 10:08:00,
2013-12-10 04:13:00,14.4,1.8,30.29,SSW,202,0.0,4.7,57,-99.99,,,0.00,wxRedirect v1.1,2013-12-10 10:13:00,
2013-12-10 04:18:00,14.4,1.8,30.29,SSW,202,1.8,3.8,57,-99.99,,,0.00,wxRedirect v1.1,2013-12-10 10:18:00,
2013-12-10 04:24:00,14.2,2.0,30.30,South,180,2.0,3.8,58,-99.99,,,0.00,wxRedirect v1.1,2013-12-10 10:24:00,
2013-12-10 04:29:00,14.2,2.0,30.29,SSE,157,0.2,3.8,58,-99.99,,,0.00,wxRedirect v1.1,2013-12-10 10:29:00,
2013-12-10 04:34:00,13.8,1.7,30.29,South,180,3.6,3.6,58,-99.99,,,0.00,wxRedirect v1.1,2013-12-10 10:34:00,
2013-12-10 04:40:00,13.8,1.7,30.29,South,180,0.0,4.7,58,-99.99,,,0.00,wxRedirect v1.1,2013-12-10 10:40:00,
2013-12-10 04:45:00,13.6,1.5,30.29,SSW,202,1.1,4.7,58,-99.99,,,0.00,wxRedirect v1.1,2013-12-10 10:45:00,
2013-12-10 04:50:00,13.6,1.5,30.29,SSW,202,0.0,3.8,58,-99.99,,,0.00,wxRedirect v1.1,2013-12-10 10:50:00,
2013-12-10 04:56:00,13.6,1.5,30.29,SSW,202,0.0,4.0,58,-99.99,,,0.00,wxRedirect v1.1,2013-12-10 10:56:00,
2013-12-10 05:01:00,13.6,1.5,30.29,South,180,0.0,4.0,58,-99.99,,,0.00,wxRedirect v1.1,2013-12-10 11:01:00,
2013-12-10 05:06:00,13.6,1.5,30.28,SSW,202,0.0,1.8,58,-99.99,,,0.00,wxRedirect v1.1,2013-12-10 11:06:00,
2013-12-10 05:11:00,13.6,1.5,30.27,WSW,247,0.0,3.1,58,-99.99,,,0.00,wxRedirect v1.1,2013-12-10 11:11:00,
2013-12-10 05:17:00,13.6,1.5,30.27,SSW,202,2.7,2.7,58,-99.99,,,0.00,wxRedirect v1.1,2013-12-10 11:17:00,
2013-12-10 05:22:00,13.8,2.1,30.27,SSW,202,2.2,4.5,59,-99.99,,,0.00,wxRedirect v1.1,2013-12-10 11:22:00,
2013-12-10 05:27:00,13.8,2.1,30.27,SSW,202,0.0,4.5,59,-99.99,,,0.00,wxRedirect v1.1,2013-12-10 11:27:00,
2013-12-10 05:33:00,13.8,2.1,30.27,SW,225,0.0,0.9,59,-99.99,,,0.00,wxRedirect v1.1,2013-12-10 11:33:00,
2013-12-10 05:38:00,13.8,2.1,30.27,SW,225,0.0,0.0,59,-99.99,,,0.00,wxRedirect v1.1,2013-12-10 11:38:00,
2013-12-10 05:44:00,14.0,2.3,30.27,SW,225,0.0,0.0,59,-99.99,,,0.00,wxRedirect v1.1,2013-12-10 11:44:00,
2013-12-10 05:49:00,14.2,2.4,30.27,WSW,247,0.0,0.0,59,-99.99,,,0.00,wxRedirect v1.1,2013-12-10 11:49:00,
2013-12-10 05:54:00,14.2,2.4,30.28,West,270,0.0,0.0,59,-99.99,,,0.00,wxRedirect v1.1,2013-12-10 11:54:00,
2013-12-10 05:59:00,14.4,2.6,30.28,SW,225,0.0,0.0,59,-99.99,,,0.00,wxRedirect v1.1,2013-12-10 11:59:00,
2013-12-10 06:04:00,14.4,2.6,30.28,SSW,202,0.0,1.6,59,-99.99,,,0.00,wxRedirect v1.1,2013-12-10 12:04:00,
2013-12-10 06:10:00,14.5,2.8,30.28,SSW,202,0.0,1.6,59,-99.99,,,0.00,wxRedirect v1.1,2013-12-10 12:10:00,
2013-12-10 06:15:00,14.5,2.8,30.28,SSW,202,0.0,0.0,59,-99.99,,,0.00,wxRedirect v1.1,2013-12-10 12:15:00,
2013-12-10 06:21:00,14.5,2.8,30.27,WSW,247,2.7,2.7,59,-99.99,,,0.00,wxRedirect v1.1,2013-12-10 12:21:00,
2013-12-10 06:26:00,14.7,2.9,30.28,SSW,202,0.0,2.7,59,-99.99,,,0.00,wxRedirect v1.1,2013-12-10 12:26:00,
2013-12-10 06:31:00,14.7,2.9,30.27,SSW,202,3.1,3.1,59,-99.99,,,0.00,wxRedirect v1.1,2013-12-10 12:31:00,
2013-12-10 06:36:00,14.7,2.9,30.27,SSW,202,0.0,3.1,59,-99.99,,,0.00,wxRedirect v1.1,2013-12-10 12:36:00,
2013-12-10 06:42:00,14.7,2.9,30.27,SSW,202,0.0,1.8,59,-99.99,,,0.00,wxRedirect v1.1,2013-12-10 12:42:00,
2013-12-10 06:47:00,14.7,2.9,30.27,SSW,202,0.0,0.0,59,-99.99,,,0.00,wxRedirect v1.1,2013-12-10 12:47:00,
2013-12-10 06:52:00,14.7,3.3,30.28,SW,225,0.0,0.0,60,-99.99,,,0.00,wxRedirect v1.1,2013-12-10 12:52:00,
2013-12-10 06:58:00,14.9,3.5,30.28,SW,225,0.0,0.0,60,-99.99,,,0.00,wxRedirect v1.1,2013-12-10 12:58:00,
2013-12-10 07:03:00,14.9,3.5,30.28,WSW,247,1.3,1.3,60,-99.99,,,0.00,wxRedirect v1.1,2013-12-10 13:03:00,
2013-12-10 07:08:00,15.1,3.6,30.28,West,270,0.0,2.5,60,-99.99,,,0.00,wxRedirect v1.1,2013-12-10 13:08:00,
2013-12-10 07:14:00,15.4,4.0,30.29,West,270,0.0,2.5,60,-99.99,,,0.00,wxRedirect v1.1,2013-12-10 13:14:00,
2013-12-10 07:19:00,15.6,4.1,30.29,West,270,0.0,2.2,60,-99.99,,,0.00,wxRedirect v1.1,2013-12-10 13:19:00,
2013-12-10 07:24:00,15.6,4.1,30.29,West,270,0.0,0.7,60,-99.99,,,0.00,wxRedirect v1.1,2013-12-10 13:24:00,
2013-12-10 07:30:00,15.6,4.1,30.30,South,180,6.3,6.3,60,-99.99,,,0.00,wxRedirect v1.1,2013-12-10 13:30:00,
2013-12-10 07:35:00,15.6,4.5,30.30,South,180,0.0,6.3,61,-99.99,,,0.00,wxRedirect v1.1,2013-12-10 13:35:00,
2013-12-10 07:40:00,15.6,4.5,30.30,SW,225,0.0,1.8,61,-99.99,,,0.00,wxRedirect v1.1,2013-12-10 13:40:00,
2013-12-10 07:46:00,15.6,4.5,30.30,SW,225,0.0,0.0,61,-99.99,,,0.00,wxRedirect v1.1,2013-12-10 13:46:00,
2013-12-10 07:51:00,15.6,4.5,30.30,SW,225,0.0,0.0,61,-99.99,,,0.00,wxRedirect v1.1,2013-12-10 13:51:00,
2013-12-10 07:56:00,15.8,4.6,30.30,SW,225,0.0,0.0,61,-99.99,,,0.00,wxRedirect v1.1,2013-12-10 13:56:00,
2013-12-10 08:01:00,16.0,4.8,30.31,SSE,157,0.7,4.9,61,-99.99,,,0.00,wxRedirect v1.1,2013-12-10 14:01:00,
2013-12-10 08:07:00,15.8,4.6,30.31,SSE,157,0.0,4.9,61,-99.99,,,0.00,wxRedirect v1.1,2013-12-10 14:07:00,
2013-12-10 08:12:00,16.0,4.8,30.31,South,180,0.0,2.9,61,-99.99,,,0.00,wxRedirect v1.1,2013-12-10 14:12:00,
2013-12-10 08:18:00,16.3,5.2,30.31,SSW,202,0.0,2.2,61,-99.99,,,0.00,wxRedirect v1.1,2013-12-10 14:18:00,
2013-12-10 08:23:00,16.9,6.0,30.31,South,180,0.0,2.2,61,-99.99,,,0.00,wxRedirect v1.1,2013-12-10 14:23:00,
2013-12-10 08:28:00,17.8,6.6,30.32,South,180,2.9,8.1,61,-99.99,,,0.00,wxRedirect v1.1,2013-12-10 14:28:00,
2013-12-10 08:34:00,18.3,7.1,30.31,SSW,202,0.0,8.1,61,-99.99,,,0.00,wxRedirect v1.1,2013-12-10 14:34:00,
2013-12-10 08:39:00,19.2,7.9,30.31,South,180,5.4,5.4,61,-99.99,,,0.00,wxRedirect v1.1,2013-12-10 14:39:00,
2013-12-10 08:44:00,19.9,8.6,30.31,WSW,247,0.0,5.4,61,-99.99,,,0.00,wxRedirect v1.1,2013-12-10 14:44:00,
2013-12-10 08:50:00,21.0,9.3,30.31,WSW,247,0.0,3.1,60,-99.99,,,0.00,wxRedirect v1.1,2013-12-10 14:50:00,
2013-12-10 08:55:00,21.9,10.1,30.31,WSW,247,0.0,0.0,60,-99.99,,,0.00,wxRedirect v1.1,2013-12-10 14:55:00,
2013-12-10 09:00:00,22.6,10.8,30.31,West,270,0.0,0.0,60,-99.99,,,0.00,wxRedirect v1.1,2013-12-10 15:00:00,
2013-12-10 09:06:00,23.7,11.8,30.31,West,270,0.0,0.0,60,-99.99,,,0.00,wxRedirect v1.1,2013-12-10 15:06:00,
2013-12-10 09:11:00,25.0,13.1,30.31,West,270,0.0,0.0,60,-99.99,,,0.00,wxRedirect v1.1,2013-12-10 15:11:00,
2013-12-10 09:16:00,25.9,13.5,30.31,SSW,202,0.0,0.0,59,-99.99,,,0.00,wxRedirect v1.1,2013-12-10 15:16:00,
2013-12-10 09:22:00,26.4,13.6,30.31,South,180,2.7,2.7,58,-99.99,,,0.00,wxRedirect v1.1,2013-12-10 15:22:00,
2013-12-10 09:27:00,27.1,13.8,30.32,South,180,0.0,2.7,57,-99.99,,,0.00,wxRedirect v1.1,2013-12-10 15:27:00,
2013-12-10 09:32:00,27.7,14.4,30.32,SSE,157,0.0,4.5,57,-99.99,,,0.00,wxRedirect v1.1,2013-12-10 15:32:00,
2013-12-10 09:38:00,28.0,14.3,30.32,SSE,157,0.0,4.5,56,-99.99,,,0.00,wxRedirect v1.1,2013-12-10 15:38:00,
2013-12-10 09:43:00,28.6,14.8,30.32,SSE,157,2.9,2.9,56,-99.99,,,0.00,wxRedirect v1.1,2013-12-10 15:43:00,
2013-12-10 09:48:00,29.1,14.9,30.32,SSE,157,0.9,4.5,55,-99.99,,,0.00,wxRedirect v1.1,2013-12-10 15:48:00,
2013-12-10 09:53:00,29.1,14.9,30.32,SSE,157,1.8,4.9,55,-99.99,,,0.00,wxRedirect v1.1,2013-12-10 15:53:00,
2013-12-10 09:58:00,29.5,14.8,30.33,SSW,202,1.3,6.9,54,-99.99,,,0.00,wxRedirect v1.1,2013-12-10 15:58:00,
2013-12-10 10:04:00,29.8,15.2,30.32,SSE,157,3.4,6.9,54,-99.99,,,0.00,wxRedirect v1.1,2013-12-10 16:04:00,
2013-12-10 10:09:00,30.0,14.9,30.33,South,180,3.1,11.9,53,-99.99,,,0.00,wxRedirect v1.1,2013-12-10 16:09:00,
2013-12-10 10:14:00,30.2,15.1,30.33,South,180,0.0,8.7,53,-99.99,,,0.00,wxRedirect v1.1,2013-12-10 16:14:00,
2013-12-10 10:20:00,30.4,15.2,30.32,SSE,157,1.3,6.0,53,-99.99,,,0.00,wxRedirect v1.1,2013-12-10 16:20:00,
2013-12-10 10:25:00,30.7,15.5,30.32,SSW,202,0.0,5.6,53,-99.99,,,0.00,wxRedirect v1.1,2013-12-10 16:25:00,
2013-12-10 10:30:00,31.3,16.1,30.31,South,180,1.8,4.0,53,-99.99,,,0.00,wxRedirect v1.1,2013-12-10 16:30:00,
2013-12-10 10:36:00,31.6,16.4,30.32,SSE,157,0.0,4.0,52,-99.99,,,0.00,wxRedirect v1.1,2013-12-10 16:36:00,
2013-12-10 10:41:00,31.8,16.1,30.32,SSE,157,2.5,6.5,52,-99.99,,,0.00,wxRedirect v1.1,2013-12-10 16:41:00,
2013-12-10 10:46:00,32.2,16.9,30.31,SSE,157,3.4,6.5,53,-99.99,,,0.00,wxRedirect v1.1,2013-12-10 16:46:00,
2013-12-10 10:52:00,32.4,17.1,30.31,SSE,157,0.9,6.3,53,-99.99,,,0.00,wxRedirect v1.1,2013-12-10 16:52:00,
2013-12-10 10:57:00,32.7,17.0,30.31,SSE,157,4.9,6.3,52,-99.99,,,0.00,wxRedirect v1.1,2013-12-10 16:57:00,
2013-12-10 11:02:00,32.9,17.1,30.31,SE,135,0.0,4.9,52,-99.99,,,0.00,wxRedirect v1.1,2013-12-10 17:02:00,
2013-12-10 11:08:00,33.1,17.3,30.30,SSE,157,2.9,4.5,52,-99.99,,,0.00,wxRedirect v1.1,2013-12-10 17:08:00,
2013-12-10 11:13:00,33.4,17.6,30.30,SSE,157,0.0,4.5,52,-99.99,,,0.00,wxRedirect v1.1,2013-12-10 17:13:00,
2013-12-10 11:18:00,33.8,17.5,30.29,SE,135,0.0,2.9,51,-99.99,,,0.00,wxRedirect v1.1,2013-12-10 17:18:00,
2013-12-10 11:23:00,34.3,18.0,30.28,SE,135,0.0,1.3,51,-99.99,,,0.00,wxRedirect v1.1,2013-12-10 17:23:00,
2013-12-10 11:29:00,34.9,18.6,30.28,SE,135,0.0,1.3,51,-99.99,,,0.00,wxRedirect v1.1,2013-12-10 17:29:00,
2013-12-10 11:34:00,35.4,18.7,30.27,SE,135,0.0,1.3,50,-99.99,,,0.00,wxRedirect v1.1,2013-12-10 17:34:00,
2013-12-10 11:39:00,35.8,19.0,30.27,SE,135,1.1,1.8,50,-99.99,,,0.00,wxRedirect v1.1,2013-12-10 17:39:00,
2013-12-10 11:44:00,36.1,19.3,30.27,SE,135,0.4,4.7,50,-99.99,,,0.00,wxRedirect v1.1,2013-12-10 17:44:00,
2013-12-10 11:49:00,36.1,18.8,30.27,SSE,157,6.0,7.4,49,-99.99,,,0.00,wxRedirect v1.1,2013-12-10 17:49:00,
2013-12-10 11:55:00,36.3,19.0,30.26,SSW,202,3.1,7.4,49,-99.99,,,0.00,wxRedirect v1.1,2013-12-10 17:55:00,
2013-12-10 12:00:00,36.7,19.3,30.26,South,180,2.2,5.4,49,-99.99,,,0.00,wxRedirect v1.1,2013-12-10 18:00:00,
2013-12-10 12:05:00,36.9,19.0,30.25,SSE,157,4.9,7.4,48,-99.99,,,0.00,wxRedirect v1.1,2013-12-10 18:05:00,
2013-12-10 12:11:00,37.2,19.3,30.25,SSE,157,0.0,7.4,48,-99.99,,,0.00,wxRedirect v1.1,2013-12-10 18:11:00,
2013-12-10 12:16:00,37.2,18.8,30.24,SSE,157,1.3,4.9,47,-99.99,,,0.00,wxRedirect v1.1,2013-12-10 18:16:00,
2013-12-10 12:21:00,37.2,18.8,30.24,South,180,5.8,5.8,47,-99.99,,,0.00,wxRedirect v1.1,2013-12-10 18:21:00,
2013-12-10 12:27:00,37.4,18.9,30.24,SSE,157,3.8,7.2,47,-99.99,,,0.00,wxRedirect v1.1,2013-12-10 18:27:00,
2013-12-10 12:32:00,37.8,18.7,30.24,SSE,157,8.5,11.0,46,-99.99,,,0.00,wxRedirect v1.1,2013-12-10 18:32:00,
2013-12-10 12:37:00,37.6,18.0,30.24,SSE,157,3.8,11.0,45,-99.99,,,0.00,wxRedirect v1.1,2013-12-10 18:37:00,
2013-12-10 12:43:00,37.6,18.6,30.23,SSE,157,3.1,8.5,46,-99.99,,,0.00,wxRedirect v1.1,2013-12-10 18:43:00,
2013-12-10 12:48:00,37.8,18.7,30.22,SSE,157,2.2,8.5,46,-99.99,,,0.00,wxRedirect v1.1,2013-12-10 18:48:00,
2013-12-10 12:53:00,37.9,18.9,30.22,South,180,4.7,4.7,46,-99.99,,,0.00,wxRedirect v1.1,2013-12-10 18:53:00,
2013-12-10 12:59:00,38.1,19.0,30.22,SSE,157,5.1,5.8,46,-99.99,,,0.00,wxRedirect v1.1,2013-12-10 18:59:00,
2013-12-10 13:04:00,38.3,18.7,30.22,SSE,157,4.7,6.3,45,-99.99,,,0.00,wxRedirect v1.1,2013-12-10 19:04:00,
2013-12-10 13:09:00,38.3,18.7,30.21,South,180,9.2,9.6,45,-99.99,,,0.00,wxRedirect v1.1,2013-12-10 19:09:00,
2013-12-10 13:14:00,38.5,18.3,30.21,SE,135,0.2,9.6,44,-99.99,,,0.00,wxRedirect v1.1,2013-12-10 19:14:00,
2013-12-10 13:19:00,38.5,18.3,30.21,SSE,157,0.9,5.1,44,-99.99,,,0.00,wxRedirect v1.1,2013-12-10 19:19:00,
2013-12-10 13:25:00,38.8,18.6,30.20,SSE,157,0.2,5.1,44,-99.99,,,0.00,wxRedirect v1.1,2013-12-10 19:25:00,
2013-12-10 13:30:00,38.8,18.6,30.20,South,180,11.2,11.2,44,-99.99,,,0.00,wxRedirect v1.1,2013-12-10 19:30:00,
2013-12-10 13:35:00,39.0,18.3,30.20,SSE,157,3.1,11.2,43,-99.99,,,0.00,wxRedirect v1.1,2013-12-10 19:35:00,
2013-12-10 13:40:00,39.4,18.6,30.19,South,180,3.1,11.0,43,-99.99,,,0.00,wxRedirect v1.1,2013-12-10 19:40:00,
2013-12-10 13:45:00,39.6,18.8,30.19,South,180,4.5,10.5,43,-99.99,,,0.00,wxRedirect v1.1,2013-12-10 19:45:00,
2013-12-10 13:51:00,39.6,18.2,30.19,SSE,157,5.1,11.2,42,-99.99,,,0.00,wxRedirect v1.1,2013-12-10 19:51:00,
2013-12-10 13:56:00,39.7,18.4,30.19,South,180,7.8,13.6,42,-99.99,,,0.00,wxRedirect v1.1,2013-12-10 19:56:00,
2013-12-10 14:02:00,39.7,17.9,30.18,South,180,8.3,13.6,41,-99.99,,,0.00,wxRedirect v1.1,2013-12-10 20:02:00,
2013-12-10 14:07:00,39.9,18.1,30.18,South,180,11.0,12.8,41,-99.99,,,0.00,wxRedirect v1.1,2013-12-10 20:07:00,
2013-12-10 14:12:00,40.1,17.7,30.18,SSE,157,13.0,13.4,40,-99.99,,,0.00,wxRedirect v1.1,2013-12-10 20:12:00,
2013-12-10 14:18:00,40.5,18.0,30.17,South,180,15.4,15.4,40,-99.99,,,0.00,wxRedirect v1.1,2013-12-10 20:18:00,
2013-12-10 14:23:00,40.5,18.0,30.17,SSE,157,5.4,15.4,40,-99.99,,,0.00,wxRedirect v1.1,2013-12-10 20:23:00,
2013-12-10 14:28:00,40.6,18.2,30.17,SSE,157,7.4,13.9,40,-99.99,,,0.00,wxRedirect v1.1,2013-12-10 20:28:00,
2013-12-10 14:34:00,40.8,18.3,30.17,SSE,157,9.2,17.2,40,-99.99,,,0.00,wxRedirect v1.1,2013-12-10 20:34:00,
2013-12-10 14:39:00,40.8,17.7,30.17,SSE,157,11.9,17.4,39,-99.99,,,0.00,wxRedirect v1.1,2013-12-10 20:39:00,
2013-12-10 14:44:00,41.0,17.9,30.17,SW,225,3.4,19.0,39,-99.99,,,0.00,wxRedirect v1.1,2013-12-10 20:44:00,
2013-12-10 14:50:00,41.2,18.0,30.17,SSE,157,8.1,19.0,39,-99.99,,,0.00,wxRedirect v1.1,2013-12-10 20:50:00,
2013-12-10 14:55:00,41.2,18.0,30.17,South,180,12.5,17.2,39,-99.99,,,0.00,wxRedirect v1.1,2013-12-10 20:55:00,
2013-12-10 15:00:00,41.0,17.2,30.17,SSE,157,11.9,17.2,38,-99.99,,,0.00,wxRedirect v1.1,2013-12-10 21:00:00,
2013-12-10 15:06:00,41.0,17.9,30.17,SSE,157,11.4,15.9,39,-99.99,,,0.00,wxRedirect v1.1,2013-12-10 21:06:00,
2013-12-10 15:11:00,41.0,17.2,30.17,South,180,12.3,15.9,38,-99.99,,,0.00,wxRedirect v1.1,2013-12-10 21:11:00,
2013-12-10 15:16:00,41.0,17.0,30.17,SE,135,11.0,14.5,38,-99.99,,,0.00,wxRedirect v1.1,2013-12-10 21:16:00,
2013-12-10 15:22:00,40.8,17.0,30.17,South,180,12.5,15.9,38,-99.99,,,0.00,wxRedirect v1.1,2013-12-10 21:22:00,
2013-12-10 15:27:00,40.8,17.7,30.17,SSE,157,10.1,15.9,39,-99.99,,,0.00,wxRedirect v1.1,2013-12-10 21:27:00,
2013-12-10 15:32:00,40.6,17.5,30.16,SE,135,2.9,15.0,39,-99.99,,,0.00,wxRedirect v1.1,2013-12-10 21:32:00,
2013-12-10 15:37:00,40.6,16.9,30.16,SSE,157,3.8,17.0,38,-99.99,,,0.00,wxRedirect v1.1,2013-12-10 21:37:00,
2013-12-10 15:42:00,40.5,17.4,30.16,SSE,157,14.3,17.0,39,-99.99,,,0.00,wxRedirect v1.1,2013-12-10 21:42:00,
2013-12-10 15:47:00,40.5,17.4,30.16,SSW,202,10.3,16.1,39,-99.99,,,0.00,wxRedirect v1.1,2013-12-10 21:47:00,
2013-12-10 15:52:00,40.3,16.6,30.16,SSE,157,4.7,13.9,38,-99.99,,,0.00,wxRedirect v1.1,2013-12-10 21:52:00,
2013-12-10 15:58:00,40.3,17.2,30.16,SE,135,7.2,12.3,39,-99.99,,,0.00,wxRedirect v1.1,2013-12-10 21:58:00,
2013-12-10 16:03:00,40.1,17.0,30.16,SSE,157,11.4,14.8,39,-99.99,,,0.00,wxRedirect v1.1,2013-12-10 22:03:00,
2013-12-10 16:08:00,39.9,16.9,30.15,SSE,157,11.2,18.6,39,-99.99,,,0.00,wxRedirect v1.1,2013-12-10 22:08:00,
2013-12-10 16:13:00,39.7,17.4,30.15,SSE,157,13.9,18.6,40,-99.99,,,0.00,wxRedirect v1.1,2013-12-10 22:13:00,
2013-12-10 16:19:00,39.4,17.2,30.15,WSW,247,2.9,16.6,40,-99.99,,,0.00,wxRedirect v1.1,2013-12-10 22:19:00,
2013-12-10 16:24:00,39.4,17.6,30.15,SSE,157,2.9,18.1,41,-99.99,,,0.00,wxRedirect v1.1,2013-12-10 22:24:00,
2013-12-10 16:29:00,39.0,17.8,30.15,South,180,11.4,18.1,42,-99.99,,,0.00,wxRedirect v1.1,2013-12-10 22:29:00,
2013-12-10 16:35:00,38.8,18.1,30.15,South,180,12.5,16.6,43,-99.99,,,0.00,wxRedirect v1.1,2013-12-10 22:35:00,
2013-12-10 16:40:00,38.3,18.2,30.15,SSE,157,7.4,16.6,44,-99.99,,,0.00,wxRedirect v1.1,2013-12-10 22:40:00,
2013-12-10 16:45:00,37.9,18.4,30.15,SSE,157,6.9,18.1,45,-99.99,,,0.00,wxRedirect v1.1,2013-12-10 22:45:00,
2013-12-10 16:55:00,37.9,18.4,30.14,South,180,11.9,18.1,45,-99.99,,,0.00,wxRedirect v1.1,2013-12-10 22:55:00,
2013-12-10 17:01:00,37.2,19.3,30.13,SSE,157,3.4,12.1,48,-99.99,,,0.00,wxRedirect v1.1,2013-12-10 23:01:00,
2013-12-10 17:06:00,37.0,19.6,30.13,SSE,157,4.0,12.1,49,-99.99,,,0.00,wxRedirect v1.1,2013-12-10 23:06:00,
2013-12-10 17:11:00,36.7,19.3,30.13,SE,135,4.7,8.1,49,-99.99,,,0.00,wxRedirect v1.1,2013-12-10 23:11:00,
2013-12-10 17:17:00,36.5,19.7,30.13,South,180,10.7,12.1,50,-99.99,,,0.00,wxRedirect v1.1,2013-12-10 23:17:00,
2013-12-10 17:22:00,36.3,19.9,30.13,SSE,157,5.6,12.1,51,-99.99,,,0.00,wxRedirect v1.1,2013-12-10 23:22:00,
2013-12-10 17:27:00,36.1,19.8,30.13,SSE,157,5.8,12.8,51,-99.99,,,0.00,wxRedirect v1.1,2013-12-10 23:27:00,
2013-12-10 17:33:00,36.1,19.8,30.12,SSE,157,11.0,18.6,51,-99.99,,,0.00,wxRedirect v1.1,2013-12-10 23:33:00,
2013-12-10 17:38:00,36.0,19.6,30.11,SSE,157,11.4,21.9,51,-99.99,,,0.00,wxRedirect v1.1,2013-12-10 23:38:00,
2013-12-10 17:43:00,36.0,19.2,30.11,SSE,157,9.8,21.9,50,-99.99,,,0.00,wxRedirect v1.1,2013-12-10 23:43:00,
2013-12-10 17:50:00,36.0,18.7,30.12,SSE,157,13.4,20.4,49,-99.99,,,0.00,wxRedirect v1.1,2013-12-10 23:50:00,
2013-12-10 17:55:00,35.8,18.0,30.12,South,180,8.1,17.0,48,-99.99,,,0.00,wxRedirect v1.1,2013-12-10 23:55:00,
2013-12-10 18:01:00,35.8,18.0,30.13,SSW,202,6.5,12.3,48,-99.99,,,0.00,wxRedirect v1.1,2013-12-11 00:01:00,
2013-12-10 18:06:00,35.8,17.5,30.13,SSW,202,7.8,12.1,47,-99.99,,,0.00,wxRedirect v1.1,2013-12-11 00:06:00,
2013-12-10 18:11:00,35.8,17.5,30.13,SSE,157,4.5,11.9,47,-99.99,,,0.00,wxRedirect v1.1,2013-12-11 00:11:00,
2013-12-10 18:16:00,35.4,16.6,30.13,SSE,157,6.5,10.5,46,-99.99,,,0.00,wxRedirect v1.1,2013-12-11 00:16:00,
2013-12-10 18:22:00,35.4,16.6,30.12,SSE,157,7.8,15.2,46,-99.99,,,0.00,wxRedirect v1.1,2013-12-11 00:22:00,
2013-12-10 18:27:00,35.2,15.9,30.12,South,180,8.9,15.2,45,-99.99,,,0.00,wxRedirect v1.1,2013-12-11 00:27:00,
2013-12-10 18:32:00,35.2,15.9,30.11,South,180,13.6,13.6,45,-99.99,,,0.00,wxRedirect v1.1,2013-12-11 00:32:00,
2013-12-10 18:38:00,34.9,15.6,30.11,South,180,9.6,17.4,45,-99.99,,,0.00,wxRedirect v1.1,2013-12-11 00:38:00,
2013-12-10 18:43:00,34.7,15.4,30.12,South,180,0.0,17.4,45,-99.99,,,0.00,wxRedirect v1.1,2013-12-11 00:43:00,
2013-12-10 18:50:00,34.5,15.2,30.13,SSE,157,0.0,11.0,45,-99.99,,,0.00,wxRedirect v1.1,2013-12-11 00:50:00,
2013-12-10 18:55:00,34.3,15.0,30.13,SSE,157,13.0,13.6,45,-99.99,,,0.00,wxRedirect v1.1,2013-12-11 00:55:00,
2013-12-10 19:00:00,34.3,15.0,30.13,South,180,7.6,13.6,45,-99.99,,,0.00,wxRedirect v1.1,2013-12-11 01:00:00,
2013-12-10 19:06:00,34.2,14.9,30.13,South,180,8.9,19.7,45,-99.99,,,0.00,wxRedirect v1.1,2013-12-11 01:06:00,
2013-12-10 19:11:00,34.0,14.7,30.13,South,180,5.4,19.7,45,-99.99,,,0.00,wxRedirect v1.1,2013-12-11 01:11:00,
2013-12-10 19:17:00,33.6,14.4,30.13,South,180,15.2,15.2,45,-99.99,,,0.00,wxRedirect v1.1,2013-12-11 01:17:00,
2013-12-10 19:22:00,33.4,14.2,30.13,South,180,9.2,16.8,45,-99.99,,,0.00,wxRedirect v1.1,2013-12-11 01:22:00,
2013-12-10 19:27:00,33.1,14.4,30.13,South,180,9.2,16.8,46,-99.99,,,0.00,wxRedirect v1.1,2013-12-11 01:27:00,
2013-12-10 19:32:00,32.9,14.2,30.14,SSE,157,10.7,12.5,46,-99.99,,,0.00,wxRedirect v1.1,2013-12-11 01:32:00,
2013-12-10 19:38:00,32.7,14.1,30.14,SSE,157,9.8,16.6,46,-99.99,,,0.00,wxRedirect v1.1,2013-12-11 01:38:00,
2013-12-10 19:43:00,32.5,14.4,30.13,SSE,157,4.5,12.3,47,-99.99,,,0.00,wxRedirect v1.1,2013-12-11 01:43:00,
2013-12-10 19:51:00,32.4,14.3,30.13,SSE,157,12.5,16.8,47,-99.99,,,0.00,wxRedirect v1.1,2013-12-11 01:51:00,
2013-12-10 19:57:00,31.8,14.3,30.13,South,180,13.6,19.5,48,-99.99,,,0.00,wxRedirect v1.1,2013-12-11 01:57:00,
2013-12-10 20:02:00,31.8,14.8,30.13,South,180,16.1,19.9,49,-99.99,,,0.00,wxRedirect v1.1,2013-12-11 02:02:00,
2013-12-10 20:07:00,31.6,14.6,30.14,SSE,157,7.6,16.1,49,-99.99,,,0.00,wxRedirect v1.1,2013-12-11 02:07:00,
2013-12-10 20:13:00,31.3,14.8,30.14,SSE,157,3.1,16.8,50,-99.99,,,0.00,wxRedirect v1.1,2013-12-11 02:13:00,
2013-12-10 20:18:00,31.1,14.6,30.14,South,180,13.2,16.8,50,-99.99,,,0.00,wxRedirect v1.1,2013-12-11 02:18:00,
2013-12-10 20:23:00,30.9,14.9,30.13,SSE,157,10.5,15.2,51,-99.99,,,0.00,wxRedirect v1.1,2013-12-11 02:23:00,
2013-12-10 20:29:00,30.7,14.7,30.14,SSE,157,8.7,16.8,51,-99.99,,,0.00,wxRedirect v1.1,2013-12-11 02:29:00,
2013-12-10 20:34:00,30.7,14.7,30.14,SSE,157,15.4,15.4,51,-99.99,,,0.00,wxRedirect v1.1,2013-12-11 02:34:00,
2013-12-10 20:39:00,30.6,15.0,30.15,South,180,8.5,15.4,52,-99.99,,,0.00,wxRedirect v1.1,2013-12-11 02:39:00,
2013-12-10 20:44:00,30.4,14.8,30.15,South,180,5.6,19.5,52,-99.99,,,0.00,wxRedirect v1.1,2013-12-11 02:44:00,
2013-12-10 20:55:00,30.2,15.1,30.15,South,180,3.8,17.9,53,-99.99,,,0.00,wxRedirect v1.1,2013-12-11 02:55:00,
2013-12-10 21:00:00,30.2,15.5,30.16,SSE,157,5.6,17.9,54,-99.99,,,0.00,wxRedirect v1.1,2013-12-11 03:00:00,
2013-12-10 21:05:00,30.0,15.3,30.16,SSE,157,12.5,17.9,54,-99.99,,,0.00,wxRedirect v1.1,2013-12-11 03:05:00,
2013-12-10 21:11:00,30.0,15.3,30.16,South,180,7.2,17.0,54,-99.99,,,0.00,wxRedirect v1.1,2013-12-11 03:11:00,
2013-12-10 21:16:00,30.0,15.7,30.16,SSE,157,17.4,21.7,55,-99.99,,,0.00,wxRedirect v1.1,2013-12-11 03:16:00,
2013-12-10 21:21:00,30.0,15.7,30.17,SSW,202,8.1,21.7,55,-99.99,,,0.00,wxRedirect v1.1,2013-12-11 03:21:00,
2013-12-10 21:27:00,30.0,16.1,30.17,SSW,202,5.4,13.9,56,-99.99,,,0.00,wxRedirect v1.1,2013-12-11 03:27:00,
2013-12-10 21:32:00,30.0,16.1,30.17,South,180,3.8,13.9,56,-99.99,,,0.00,wxRedirect v1.1,2013-12-11 03:32:00,
2013-12-10 21:37:00,30.0,16.1,30.16,South,180,4.7,12.8,56,-99.99,,,0.00,wxRedirect v1.1,2013-12-11 03:37:00,
2013-12-10 21:42:00,29.8,16.0,30.16,South,180,7.4,11.2,56,-99.99,,,0.00,wxRedirect v1.1,2013-12-11 03:42:00,
2013-12-10 21:47:00,29.8,16.0,30.16,South,180,2.9,11.4,56,-99.99,,,0.00,wxRedirect v1.1,2013-12-11 03:47:00,
2013-12-10 21:52:00,29.8,16.0,30.17,South,180,4.0,11.6,56,-99.99,,,0.00,wxRedirect v1.1,2013-12-11 03:52:00,
2013-12-10 21:58:00,29.7,16.2,30.17,SSW,202,3.4,14.1,57,-99.99,,,0.00,wxRedirect v1.1,2013-12-11 03:58:00,
2013-12-10 22:03:00,29.5,16.1,30.17,SSW,202,8.7,14.1,57,-99.99,,,0.00,wxRedirect v1.1,2013-12-11 04:03:00,
2013-12-10 22:08:00,29.5,16.5,30.17,SSE,157,5.4,10.7,58,-99.99,,,0.00,wxRedirect v1.1,2013-12-11 04:08:00,
2013-12-10 22:13:00,29.5,16.5,30.17,SSW,202,4.3,9.2,58,-99.99,,,0.00,wxRedirect v1.1,2013-12-11 04:13:00,
2013-12-10 22:18:00,29.3,16.3,30.17,South,180,2.9,9.2,58,-99.99,,,0.00,wxRedirect v1.1,2013-12-11 04:18:00,
2013-12-10 22:24:00,29.1,16.2,30.17,South,180,5.1,9.6,58,-99.99,,,0.00,wxRedirect v1.1,2013-12-11 04:24:00,
2013-12-10 22:29:00,29.1,16.6,30.17,South,180,3.4,12.1,59,-99.99,,,0.00,wxRedirect v1.1,2013-12-11 04:29:00,
2013-12-10 22:34:00,28.9,16.4,30.17,South,180,6.3,12.1,59,-99.99,,,0.00,wxRedirect v1.1,2013-12-11 04:34:00,
2013-12-10 22:39:00,28.9,16.4,30.18,South,180,8.7,9.8,59,-99.99,,,0.00,wxRedirect v1.1,2013-12-11 04:39:00,
2013-12-10 22:45:00,28.8,16.3,30.18,South,180,0.0,8.7,59,-99.99,,,0.00,wxRedirect v1.1,2013-12-11 04:45:00,
2013-12-10 22:50:00,28.8,16.3,30.18,SSE,157,2.9,8.9,59,-99.99,,,0.00,wxRedirect v1.1,2013-12-11 04:50:00,
2013-12-10 22:55:00,28.6,16.1,30.18,South,180,2.2,8.9,59,-99.99,,,0.00,wxRedirect v1.1,2013-12-11 04:55:00,
2013-12-10 23:00:00,28.6,16.1,30.18,SSE,157,0.0,4.0,59,-99.99,,,0.00,wxRedirect v1.1,2013-12-11 05:00:00,
2013-12-10 23:01:00,28.6,16.1,30.18,SSE,157,0.0,4.0,59,-99.99,,,0.00,wxRedirect v1.1,2013-12-11 05:01:00,
2013-12-10 23:02:00,28.6,16.1,30.18,SSE,157,0.0,4.0,59,-99.99,,,0.00,wxRedirect v1.1,2013-12-11 05:02:00,
2013-12-10 23:03:00,28.6,16.1,30.19,SSE,157,0.0,4.0,59,-99.99,,,0.00,wxRedirect v1.1,2013-12-11 05:03:00,
2013-12-10 23:04:00,28.6,16.1,30.19,SSE,157,0.0,4.0,59,-99.99,,,0.00,wxRedirect v1.1,2013-12-11 05:04:00,
2013-12-10 23:06:00,28.6,16.1,30.19,SSE,157,0.0,4.0,59,-99.99,,,0.00,wxRedirect v1.1,2013-12-11 05:06:00,
2013-12-10 23:12:00,28.6,16.1,30.19,SSE,157,0.0,2.2,59,-99.99,,,0.00,wxRedirect v1.1,2013-12-11 05:12:00,
2013-12-10 23:17:00,28.2,16.2,30.19,SSE,157,2.0,4.0,60,-99.99,,,0.00,wxRedirect v1.1,2013-12-11 05:17:00,
2013-12-10 23:22:00,28.2,16.2,30.19,SSE,157,0.9,6.3,60,-99.99,,,0.00,wxRedirect v1.1,2013-12-11 05:22:00,
2013-12-10 23:27:00,28.0,16.0,30.19,SSE,157,0.0,6.3,60,-99.99,,,0.00,wxRedirect v1.1,2013-12-11 05:27:00,
2013-12-10 23:33:00,28.0,16.0,30.19,SSE,157,1.3,4.5,60,-99.99,,,0.00,wxRedirect v1.1,2013-12-11 05:33:00,
2013-12-10 23:38:00,27.7,15.6,30.19,South,180,0.0,4.5,60,-99.99,,,0.00,wxRedirect v1.1,2013-12-11 05:38:00,
2013-12-10 23:43:00,27.5,15.4,30.19,South,180,2.0,5.1,60,-99.99,,,0.00,wxRedirect v1.1,2013-12-11 05:43:00,
2013-12-10 23:49:00,27.5,15.4,30.19,South,180,2.2,6.0,60,-99.99,,,0.00,wxRedirect v1.1,2013-12-11 05:49:00,
2013-12-10 23:54:00,27.3,15.3,30.20,SSE,157,3.6,6.0,60,-99.99,,,0.00,wxRedirect v1.1,2013-12-11 05:54:00,
2013-12-10 23:59:00,27.3,15.6,30.20,SSW,202,0.9,6.7,61,-99.99,,,0.00,wxRedirect v1.1,2013-12-11 05:59:00,